Location: ??????
(55.7522°N, 37.6156°E)
Time: 18:10:28
(UTC+00:00)

Cosmos 841 Rocket - Pass Details

Date: 14 June 2025
Orbit: 742 x 768 km, 74.0° (Epoch: 12 July)

Event Time Altitude Azimuth Distance (km) Brightness Sun altitude
Rises 21:35:29 0° 330° (NNW) 3,252 7.9 -10.9°
Reaches altitude 10° 21:37:53 10° 328° (NNW) 2,321 6.9 -10.9°
Maximum altitude 21:43:05 63° 248° (WSW) 858 3.6 -10.9°
Enters shadow 21:47:35 14° 170° (S) 2,052 5.1 -10.9°
